timestamp,wind_dir_avg,wind_spd_avg,wind_spd_max_dir,wind_spd_gust,battery_voltage,lat,long
2023-07-28 00:04:00+00:00,216.0,10.45,227.0,12.79,12.89,47.59359,-54.27349
2023-07-28 00:14:01+00:00,216.0,10.74,218.0,12.2,12.41,47.59359,-54.27349
2023-07-28 00:24:01+00:00,214.0,9.78,220.0,10.9,12.41,47.59359,-54.27349
2023-07-28 00:34:01+00:00,211.0,9.43,211.0,10.55,12.41,47.59359,-54.27349
2023-07-28 00:44:01+00:00,209.0,8.91,211.0,10.17,12.41,47.59359,-54.27349
2023-07-28 00:54:01+00:00,207.0,8.51,206.0,9.99,12.41,47.59359,-54.27349
2023-07-28 01:04:01+00:00,206.0,7.95,207.0,8.76,12.41,47.59359,-54.27349
2023-07-28 01:14:01+00:00,207.0,7.7,206.0,8.79,12.41,47.59359,-54.27349
2023-07-28 01:24:01+00:00,205.0,8.13,202.0,8.99,12.41,47.59359,-54.27349
2023-07-28 01:34:01+00:00,209.0,8.76,212.0,10.53,12.41,47.59359,-54.27349
2023-07-28 01:44:01+00:00,210.0,9.64,213.0,11.05,12.41,47.59359,-54.27349
2023-07-28 01:54:01+00:00,208.0,9.42,213.0,10.99,12.41,47.59359,-54.27349
2023-07-28 02:04:01+00:00,205.0,8.47,212.0,10.45,12.41,47.59359,-54.27349
2023-07-28 02:14:01+00:00,208.0,9.38,218.0,10.97,12.41,47.59359,-54.27349
2023-07-28 02:24:01+00:00,207.0,9.03,214.0,9.79,12.41,47.59359,-54.27349
2023-07-28 02:34:01+00:00,206.0,9.06,210.0,10.42,12.41,47.59359,-54.27349
2023-07-28 02:44:01+00:00,204.0,9.28,207.0,10.72,12.41,47.59359,-54.27349
2023-07-28 02:54:01+00:00,205.0,8.86,207.0,9.95,12.41,47.59359,-54.27349
2023-07-28 03:04:01+00:00,205.0,8.74,211.0,9.99,12.41,47.59359,-54.27349
2023-07-28 03:14:01+00:00,204.0,8.84,206.0,9.85,12.33,47.59359,-54.27349
2023-07-28 03:24:01+00:00,211.0,10.42,220.0,12.13,12.33,47.59359,-54.27349
2023-07-28 03:34:01+00:00,213.0,9.13,214.0,10.6,12.33,47.59359,-54.27349
2023-07-28 03:44:01+00:00,210.0,9.05,215.0,10.52,12.33,47.59359,-54.27349
2023-07-28 03:54:01+00:00,209.0,8.6,217.0,10.07,12.33,47.59359,-54.27349
2023-07-28 04:04:01+00:00,209.0,8.52,213.0,9.68,12.33,47.59359,-54.27349
2023-07-28 04:14:00+00:00,207.0,8.41,209.0,9.64,12.41,47.59359,-54.27349
2023-07-28 04:24:00+00:00,208.0,8.3,212.0,9.7,12.41,47.59359,-54.27349
2023-07-28 04:34:00+00:00,206.0,7.87,205.0,9.05,12.41,47.59359,-54.27349
2023-07-28 04:44:00+00:00,211.0,7.78,212.0,8.49,12.41,47.59359,-54.27349
2023-07-28 04:54:00+00:00,212.0,7.81,212.0,8.57,12.41,47.59359,-54.27349
2023-07-28 05:04:00+00:00,208.0,7.76,208.0,8.69,12.41,47.59359,-54.27349
2023-07-28 05:14:00+00:00,208.0,7.55,214.0,8.58,12.33,47.59359,-54.27349
2023-07-28 05:24:00+00:00,205.0,7.88,209.0,8.87,12.33,47.59359,-54.27349
2023-07-28 05:34:00+00:00,203.0,8.33,204.0,9.19,12.33,47.59359,-54.27349
2023-07-28 05:44:00+00:00,206.0,8.0,215.0,9.56,12.33,47.59359,-54.27349
2023-07-28 05:54:00+00:00,211.0,8.06,215.0,9.31,12.33,47.59359,-54.27349
2023-07-28 06:04:00+00:00,212.0,7.88,212.0,8.94,12.33,47.59359,-54.27349
2023-07-28 06:14:00+00:00,211.0,7.9,212.0,9.1,12.33,47.59359,-54.27349
2023-07-28 06:24:00+00:00,212.0,8.02,216.0,8.97,12.33,47.59359,-54.27349
2023-07-28 06:34:00+00:00,212.0,8.68,223.0,11.29,12.33,47.59359,-54.27349
2023-07-28 06:44:00+00:00,215.0,9.34,221.0,10.85,12.33,47.59359,-54.27349
2023-07-28 06:54:00+00:00,215.0,8.95,223.0,10.32,12.33,47.59359,-54.27349
2023-07-28 07:04:00+00:00,212.0,7.8,208.0,8.64,12.33,47.59359,-54.27349
2023-07-28 07:14:01+00:00,213.0,8.06,218.0,9.35,12.25,47.59359,-54.27349
2023-07-28 07:24:01+00:00,211.0,8.29,215.0,9.42,12.25,47.59359,-54.27349
2023-07-28 07:34:01+00:00,207.0,8.53,212.0,9.64,12.25,47.59359,-54.27349
2023-07-28 07:44:01+00:00,209.0,9.0,210.0,11.32,12.25,47.59359,-54.27349
2023-07-28 07:54:01+00:00,217.0,8.82,222.0,10.41,12.25,47.59359,-54.27349
2023-07-28 08:04:01+00:00,208.0,8.36,209.0,9.22,12.25,47.59359,-54.27349
2023-07-28 08:14:00+00:00,202.0,7.72,208.0,8.23,12.25,47.59359,-54.27349
2023-07-28 08:24:00+00:00,202.0,8.84,211.0,10.65,12.25,47.59359,-54.27349
2023-07-28 08:34:00+00:00,226.0,8.89,229.0,10.06,12.25,47.59359,-54.27349
2023-07-28 08:44:00+00:00,228.0,8.07,229.0,10.21,12.25,47.59359,-54.27349
2023-07-28 08:54:00+00:00,221.0,6.36,220.0,7.36,12.25,47.59359,-54.27349
2023-07-28 09:04:00+00:00,239.0,8.4,240.0,8.81,12.25,47.59359,-54.27349
2023-07-28 09:14:01+00:00,204.0,6.52,221.0,7.99,12.25,47.59359,-54.27349
2023-07-28 09:24:01+00:00,214.0,5.98,221.0,6.97,12.25,47.59359,-54.27349
2023-07-28 09:34:01+00:00,223.0,8.05,225.0,8.84,12.25,47.59359,-54.27349
2023-07-28 09:44:01+00:00,208.0,7.98,210.0,8.7,12.25,47.59359,-54.27349
2023-07-28 09:54:01+00:00,209.0,7.78,207.0,9.01,12.25,47.59359,-54.27349
2023-07-28 10:04:01+00:00,212.0,8.13,214.0,9.16,12.25,47.59359,-54.27349
2023-07-28 10:14:00+00:00,212.0,9.17,214.0,10.61,12.33,47.59359,-54.27349
2023-07-28 10:24:00+00:00,212.0,9.62,210.0,10.71,12.33,47.59359,-54.27349
2023-07-28 10:34:00+00:00,209.0,8.47,210.0,9.08,12.33,47.59359,-54.27349
2023-07-28 10:44:00+00:00,207.0,8.84,199.0,11.07,12.33,47.59359,-54.27349
2023-07-28 10:54:00+00:00,206.0,7.37,208.0,8.11,12.33,47.59359,-54.27349
2023-07-28 11:04:00+00:00,209.0,6.92,207.0,7.68,12.33,47.59359,-54.27349
2023-07-28 11:14:01+00:00,222.0,5.42,221.0,6.36,12.33,47.59359,-54.27349
2023-07-28 11:24:01+00:00,206.0,7.83,209.0,8.45,12.33,47.59359,-54.27349
2023-07-28 11:34:01+00:00,205.0,8.13,204.0,8.97,12.33,47.59359,-54.27349
2023-07-28 11:44:01+00:00,208.0,8.11,209.0,9.04,12.33,47.59359,-54.27349
2023-07-28 11:54:01+00:00,201.0,9.12,203.0,9.99,12.33,47.59359,-54.27349
2023-07-28 12:04:01+00:00,215.0,7.47,217.0,8.2,12.33,47.59359,-54.27349
2023-07-28 12:14:00+00:00,212.0,9.62,210.0,10.43,12.33,47.59359,-54.27349
2023-07-28 12:24:00+00:00,211.0,8.37,211.0,9.78,12.33,47.59359,-54.27349
2023-07-28 12:34:00+00:00,214.0,6.77,214.0,7.57,12.33,47.59359,-54.27349
2023-07-28 12:44:00+00:00,212.0,5.52,210.0,6.41,12.33,47.59359,-54.27349
2023-07-28 12:54:00+00:00,210.0,6.0,215.0,6.85,12.33,47.59359,-54.27349
2023-07-28 13:04:00+00:00,207.0,5.73,208.0,6.14,12.33,47.59359,-54.27349
2023-07-28 13:14:00+00:00,206.0,5.9,203.0,6.53,12.73,47.59359,-54.27349
2023-07-28 13:24:00+00:00,207.0,5.76,208.0,6.29,12.73,47.59359,-54.27349
2023-07-28 13:34:00+00:00,204.0,5.17,206.0,5.54,12.73,47.59359,-54.27349
2023-07-28 13:44:00+00:00,209.0,4.7,212.0,5.2,12.73,47.59359,-54.27349
2023-07-28 13:54:00+00:00,210.0,4.14,213.0,4.57,12.73,47.59359,-54.27349
2023-07-28 14:04:00+00:00,207.0,4.21,210.0,4.5,12.73,47.59359,-54.27349
2023-07-28 14:14:00+00:00,200.0,4.47,202.0,4.86,13.6,47.59359,-54.27349
2023-07-28 14:24:00+00:00,204.0,2.73,202.0,2.97,13.6,47.59359,-54.27349
2023-07-28 14:34:00+00:00,196.0,3.48,196.0,3.76,13.6,47.59359,-54.27349
2023-07-28 14:44:00+00:00,200.0,2.75,200.0,2.96,13.6,47.59359,-54.27349
2023-07-28 14:54:00+00:00,211.0,2.36,212.0,2.69,13.6,47.59359,-54.27349
2023-07-28 15:04:00+00:00,194.0,3.15,197.0,3.47,13.6,47.59359,-54.27349
2023-07-28 15:14:00+00:00,182.0,3.53,183.0,4.17,14.24,47.59359,-54.27349
2023-07-28 15:24:00+00:00,184.0,4.14,184.0,4.4,14.24,47.59359,-54.27349
2023-07-28 15:34:00+00:00,182.0,4.41,183.0,4.62,14.24,47.59359,-54.27349
2023-07-28 15:44:00+00:00,197.0,4.12,196.0,4.51,14.24,47.59359,-54.27349
2023-07-28 15:54:00+00:00,217.0,2.36,215.0,2.63,14.24,47.59359,-54.27349
2023-07-28 16:04:00+00:00,224.0,3.71,226.0,4.34,14.24,47.59359,-54.27349
2023-07-28 16:14:00+00:00,215.0,4.23,218.0,4.61,14.32,47.59359,-54.27349
2023-07-28 16:24:00+00:00,212.0,4.14,206.0,4.81,14.32,47.59359,-54.27349
2023-07-28 16:34:00+00:00,196.0,4.29,197.0,4.74,14.32,47.59359,-54.27349
2023-07-28 16:44:00+00:00,193.0,4.39,193.0,4.74,14.32,47.59359,-54.27349
2023-07-28 16:54:00+00:00,194.0,5.0,194.0,5.35,14.32,47.59359,-54.27349
2023-07-28 17:04:00+00:00,203.0,5.87,208.0,6.38,14.32,47.59359,-54.27349
2023-07-28 17:14:01+00:00,200.0,5.9,203.0,6.44,14.08,47.59359,-54.27349
2023-07-28 17:24:01+00:00,200.0,6.13,196.0,6.67,14.08,47.59359,-54.27349
2023-07-28 17:34:01+00:00,206.0,6.23,205.0,7.09,14.08,47.59359,-54.27349
2023-07-28 17:44:01+00:00,207.0,6.61,210.0,7.27,14.08,47.59359,-54.27349
2023-07-28 17:54:01+00:00,199.0,6.85,203.0,7.75,14.08,47.59359,-54.27349
2023-07-28 18:04:01+00:00,208.0,8.04,210.0,8.76,14.08,47.59359,-54.27349
2023-07-28 18:14:00+00:00,206.0,8.32,211.0,9.28,13.92,47.59359,-54.27349
2023-07-28 18:24:00+00:00,212.0,8.52,214.0,9.43,13.92,47.59359,-54.27349
2023-07-28 18:34:00+00:00,206.0,7.65,210.0,8.8,13.92,47.59359,-54.27349
2023-07-28 18:44:00+00:00,218.0,7.74,218.0,8.76,13.92,47.59359,-54.27349
2023-07-28 18:54:00+00:00,221.0,8.26,221.0,9.79,13.92,47.59359,-54.27349
2023-07-28 19:04:00+00:00,211.0,8.13,206.0,9.12,13.92,47.59359,-54.27349
2023-07-28 19:14:00+00:00,205.0,5.82,206.0,6.65,13.68,47.59359,-54.27349
2023-07-28 19:24:00+00:00,209.0,7.48,210.0,8.2,13.68,47.59359,-54.27349
2023-07-28 19:34:00+00:00,211.0,7.39,214.0,8.05,13.68,47.59359,-54.27349
2023-07-28 19:44:00+00:00,212.0,7.22,215.0,8.04,13.68,47.59359,-54.27349
2023-07-28 19:54:00+00:00,222.0,7.87,225.0,8.58,13.68,47.59359,-54.27349
2023-07-28 20:04:00+00:00,224.0,7.05,227.0,7.7,13.68,47.59359,-54.27349
2023-07-28 20:14:00+00:00,226.0,5.08,222.0,5.52,13.53,47.59359,-54.27349
2023-07-28 20:24:00+00:00,246.0,5.63,244.0,6.42,13.53,47.59359,-54.27349
2023-07-28 20:34:00+00:00,231.0,6.32,230.0,6.76,13.53,47.59359,-54.27349
2023-07-28 20:44:00+00:00,233.0,5.65,231.0,6.08,13.53,47.59359,-54.27349
2023-07-28 20:54:00+00:00,219.0,5.39,222.0,5.94,13.53,47.59359,-54.27349
2023-07-28 21:04:00+00:00,233.0,5.3,228.0,6.12,13.53,47.59359,-54.27349
2023-07-28 21:14:00+00:00,238.0,5.83,240.0,6.33,13.44,47.59359,-54.27349
2023-07-28 21:24:00+00:00,235.0,5.4,238.0,6.23,13.44,47.59359,-54.27349
2023-07-28 21:34:00+00:00,236.0,6.05,231.0,6.75,13.44,47.59359,-54.27349
2023-07-28 21:44:00+00:00,241.0,5.76,245.0,6.34,13.44,47.59359,-54.27349
2023-07-28 21:54:00+00:00,245.0,4.78,244.0,5.12,13.44,47.59359,-54.27349
2023-07-28 22:04:00+00:00,242.0,4.25,240.0,5.0,13.44,47.59359,-54.27349
2023-07-28 22:14:00+00:00,253.0,4.09,256.0,4.95,13.21,47.59359,-54.27349
2023-07-28 22:24:00+00:00,279.0,6.29,280.0,7.14,13.21,47.59359,-54.27349
2023-07-28 22:34:00+00:00,281.0,4.42,284.0,4.91,13.21,47.59359,-54.27349
2023-07-28 22:44:00+00:00,271.0,4.75,273.0,5.09,13.21,47.59359,-54.27349
2023-07-28 22:54:00+00:00,259.0,4.2,253.0,4.91,13.21,47.59359,-54.27349
2023-07-28 23:04:00+00:00,275.0,5.72,276.0,6.05,13.21,47.59359,-54.27349
2023-07-28 23:14:00+00:00,226.0,3.46,224.0,4.69,12.81,47.59359,-54.27349
2023-07-28 23:24:00+00:00,238.0,3.72,232.0,4.99,12.81,47.59359,-54.27349
2023-07-28 23:34:00+00:00,203.0,3.89,199.0,5.26,12.81,47.59359,-54.27349
2023-07-28 23:44:00+00:00,245.0,2.06,250.0,2.67,12.81,47.59359,-54.27349
2023-07-28 23:54:00+00:00,252.0,2.38,260.0,2.95,12.81,47.59359,-54.27349
